Back to catalog

NOAA 16 DEB

AliveSSO
NORAD 41523·DEBRIS·🇺🇸 United States

Launched Sep 21, 2000 from Vandenberg Space Force Base

Loading…

Next Passes (next 24 hours)

TLE

FreshSource: Space-Track

Epoch: Sep 14, 2026, 04:39 UTC

1 41523U 00055MX  26257.19396866  .00002134  00000-0  88029-3 0  9995
2 41523  98.7136 338.6808 0011126 159.2108 200.9528 14.27841063537067

Track NOAA 16 DEB in real time with AllMySat

Download on the App Store